This is the latest recevied weather packets stored in our database for station/object YU7OR-2. If no packets are shown the sender has not sent any weather packets the latest 10 day(s).
| Time | Temp. | Humidity | Pressure | Rain* | Wind** | Luminosity | Snow |
|---|---|---|---|---|---|---|---|
| 1777297644 | 21.67° C | 47% | 1017.6 hPa | 0 mm | - | - | - |
| 1777297354 | 21.67° C | 47% | 1017.6 hPa | 0 mm | - | - | - |
| 1777297104 | 21.67° C | 45% | 1017.7 hPa | 0 mm | - | - | - |
| 1777296834 | 21.67° C | 45% | 1017.6 hPa | 0 mm | - | - | - |
| 1777296549 | 21.67° C | 46% | 1017.8 hPa | 0 mm | - | - | - |
| 1777296254 | 21.67° C | 47% | 1017.9 hPa | 0 mm | - | - | - |
| 1777296009 | 21.67° C | 48% | 1017.9 hPa | 0 mm | - | - | - |
| 1777295744 | 21.67° C | 45% | 1018.1 hPa | 0 mm | - | - | - |
| 1777295479 | 21.11° C | 45% | 1018.3 hPa | 0 mm | - | - | - |
| 1777295194 | 20.56° C | 46% | 1018.1 hPa | 0 mm | - | - | - |
| 1777294934 | 20.56° C | 46% | 1018.1 hPa | 0 mm | - | - | - |
| 1777294689 | 20.56° C | 46% | 1018.1 hPa | 0 mm | - | - | - |
| 1777294399 | 20.56° C | 46% | 1018.6 hPa | 0 mm | - | - | - |
| 1777294114 | 20° C | 46% | 1018.2 hPa | 0 mm | - | - | - |
| 1777293844 | 20.56° C | 48% | 1018.3 hPa | 0 mm | - | - | - |
| 1777293584 | 20.56° C | 48% | 1018.5 hPa | 0 mm | - | - | - |
| 1777293299 | 20.56° C | 48% | 1018.4 hPa | 0 mm | - | - | - |
| 1777293033 | 20° C | 47% | 1018.3 hPa | 0 mm | - | - | - |
| 1777292736 | 20° C | 48% | 1018.7 hPa | 0 mm | - | - | - |
| 1777292464 | 20° C | 46% | 1018.7 hPa | 0 mm | - | - | - |
| 1777292204 | 20° C | 46% | 1018.7 hPa | 0 mm | - | - | - |
| 1777291934 | 19.44° C | 47% | 1018.7 hPa | 0 mm | - | - | - |
| 1777291644 | 18.89° C | 47% | 1018.9 hPa | 0 mm | - | - | - |
| 1777291384 | 19.44° C | 48% | 1019 hPa | 0 mm | - | - | - |
| 1777291084 | 19.44° C | 48% | 1019 hPa | 0 mm | - | - | - |
* Rain latest hour (hover to see other rain measurements)
** Current wind speed in m/s (hover to see current wind gust speed)